GFSNW_con_3kmhel_000.txt.gz
Helicity
116 120 148 198 160 100 46 68 86 61 62 41 39 62 65 66 49 34 25 39 36 24 25 10 3 16 5 2 -4 5 6 27 43 66 87 80 97 117 109 86 75 89 112 53
110 118 140 190 173 129 64 82 75 68 56 53 74 68 89 90 57 54 41 30 22 26 22 11 20 17 22 3 -11 9 30 52 71 98 115 122 131 131 139 118 111 68 84 59
110 118 124 165 166 119 85 89 106 82 54 52 56 75 84 90 81 55 61 53 48 51 36 24 22 26 27 17 19 29 35 83 112 134 141 167 156 105 93 85 140 95 67 25
104 128 130 149 158 114 88 120 93 100 65 54 70 96 67 67 67 62 79 59 25 21 15 21 21 21 28 37 45 55 65 106 134 116 75 92 107 57 56 79 60 81 38 50
100 133 151 158 149 98 85 95 71 78 102 98 87 95 56 53 73 77 55 39 54 30 23 23 30 26 26 46 72 88 92 137 142 140 95 95 69 57 46 33 42 79 66 52
97 130 165 161 172 102 76 69 70 79 120 102 80 73 76 65 78 104 78 55 55 57 56 47 46 50 65 79 78 97 109 150 174 172 92 60 74 40 103 86 101 71 80 131
109 120 154 162 154 115 72 76 75 97 115 108 88 73 88 72 90 64 74 66 61 53 44 45 49 72 72 78 105 98 158 179 193 183 113 121 147 84 64 29 26 69 86 135
119 131 145 161 151 115 74 86 91 78 109 111 101 80 94 108 103 106 78 94 74 32 34 68 86 84 87 94 113 130 101 155 194 188 179 85 18 114 95 105 43 146 149 156
114 135 148 159 163 129 84 90 104 103 80 78 96 98 62 97 108 108 105 93 79 54 73 101 120 113 91 87 98 140 143 130 159 200 195 180 134 116 38 102 107 182 182 121
110 124 143 153 166 156 97 93 91 86 93 82 96 104 93 106 117 98 100 84 88 77 111 121 103 95 81 90 110 135 167 165 152 114 165 124 111 134 117 125 198 169 157 162
103 114 132 145 148 151 114 100 103 91 92 69 76 77 95 105 95 99 86 107 107 134 144 118 91 93 79 97 126 143 150 187 140 134 152 112 140 135 150 177 150 150 128 120
88 94 121 138 145 149 118 101 103 112 97 79 87 94 106 108 86 119 103 130 98 116 143 105 112 118 131 122 135 169 163 170 167 210 177 119 91 114 135 167 172 144 180 100
86 78 100 128 139 144 120 102 107 111 111 113 101 98 108 121 129 117 135 137 137 128 137 128 141 149 158 181 156 172 219 167 226 191 118 52 95 125 146 179 167 163 95 31
85 80 88 116 146 152 124 120 120 132 125 121 112 113 133 143 116 115 132 129 168 165 154 176 172 173 123 196 185 221 187 170 156 115 66 92 127 161 181 136 122 41 36 52
90 85 85 108 134 156 145 141 143 148 144 93 125 152 165 173 135 108 113 120 160 181 199 208 185 187 208 275 311 230 106 79 187 206 141 160 149 153 71 31 42 80 98 103
88 92 99 104 127 162 158 139 134 161 163 158 132 148 172 166 128 117 128 131 173 192 180 190 199 210 188 279 319 160 99 124 149 165 199 125 135 161 132 128 145 130 116 99
95 92 97 113 139 168 197 195 158 167 171 159 142 122 199 231 220 222 181 179 180 166 173 219 232 238 245 359 289 163 184 221 268 251 168 136 136 154 153 139 119 100 82 69
122 92 107 121 142 137 162 178 162 152 164 183 182 187 197 151 169 173 168 177 169 168 211 281 290 283 283 299 219 225 225 220 226 140 123 119 158 146 107 82 89 85 69 78
126 166 146 175 183 196 177 148 171 178 179 180 219 244 169 193 215 189 183 191 200 236 296 309 227 285 291 220 205 230 186 127 41 108 143 136 141 118 99 83 68 79 80 83
205 336 310 287 209 155 141 172 162 190 222 258 244 257 266 178 208 227 213 214 213 220 239 231 289 338 290 210 221 182 129 35 113 149 131 116 100 94 79 63 75 88 104 110
250 343 304 218 255 254 201 232 227 207 280 214 296 317 318 372 270 309 261 250 284 300 278 291 307 249 167 187 177 167 157 143 154 173 156 108 92 85 87 91 105 115 110 102
365 338 389 447 356 314 226 301 268 225 242 206 234 291 345 343 294 329 262 326 239 318 273 292 292 192 194 195 188 154 157 182 193 143 116 99 96 103 109 111 109 114 113 113
348 356 371 293 243 279 294 366 453 370 312 256 242 311 325 256 238 256 195 253 297 211 258 299 235 176 141 135 147 156 197 192 141 112 101 96 96 113 126 121 113 121 106 95
262 347 442 370 267 349 361 387 381 337 321 320 347 350 223 138 188 192 236 253 241 281 291 179 164 128 140 150 181 211 184 150 113 98 93 102 117 118 128 133 130 122 109 101
121 235 363 386 273 197 234 185 210 206 130 166 170 164 128 152 156 181 212 238 253 159 117 139 139 148 154 169 181 155 112 102 105 96 111 126 126 128 123 117 110 111 123 122
62 72 80 67 69 83 88 76 89 71 91 106 104 120 126 182 206 218 215 247 174 151 148 158 164 142 135 137 120 99 97 101 104 102 105 122 132 140 108 100 103 106 111 142
88 86 87 61 54 27 37 47 53 53 72 92 83 78 127 124 131 160 153 143 154 178 191 162 143 134 109 109 96 94 97 97 99 105 123 122 134 135 113 89 61 70 82 141

GFSNW_con_3kmhel_003.txt.gz
Helicity
89 127 174 157 114 94 79 80 145 78 71 94 80 69 40 45 53 29 34 59 43 13 17 10 13 0 29 16 12 -15 -7 8 23 61 81 47 57 102 99 82 100 80 74 47
85 122 182 194 121 68 78 108 56 74 78 98 79 41 61 53 38 50 25 24 26 4 3 7 17 12 22 12 0 6 6 30 28 102 124 126 74 130 112 124 102 58 102 57
84 111 173 224 149 87 91 83 138 84 61 93 20 30 41 69 89 59 47 29 14 14 6 14 2 10 6 9 27 27 25 47 62 73 96 145 143 108 90 88 118 66 34 30
95 108 146 214 194 114 96 121 127 107 59 54 29 27 24 46 65 54 29 35 18 18 7 6 2 17 21 17 29 30 31 58 77 59 62 111 117 76 66 74 81 96 31 20
101 108 136 175 199 123 100 105 87 101 72 66 43 62 27 33 74 45 44 32 44 29 10 7 25 21 20 41 40 49 51 90 92 83 90 111 87 54 36 59 71 48 40 22
104 123 134 153 187 121 93 84 96 91 91 62 59 48 49 51 63 112 58 59 59 104 93 100 97 89 79 79 67 73 71 89 98 95 84 67 142 111 119 82 58 66 64 44
105 126 138 148 172 152 85 80 85 106 107 67 51 53 49 56 73 78 106 75 91 81 65 55 82 97 92 76 86 76 99 99 128 116 96 126 224 106 16 69 28 35 42 117
104 121 141 147 159 164 78 72 86 82 127 102 97 71 91 110 81 64 108 133 100 57 84 94 104 97 100 91 101 98 89 115 128 136 135 100 44 174 167 80 31 52 169 175
100 119 134 141 155 156 92 91 99 84 87 105 74 94 68 103 114 108 126 128 100 85 116 118 121 118 109 119 99 107 130 129 99 169 184 207 214 138 91 55 77 249 174 179
105 115 125 150 157 165 117 92 103 99 103 103 96 104 79 108 65 95 117 115 124 96 130 138 127 124 122 124 114 94 132 131 126 145 198 161 118 163 67 147 155 168 158 107
115 118 122 139 161 165 132 94 98 114 109 93 123 117 98 112 86 102 128 140 142 146 147 131 127 147 119 117 99 102 87 106 125 178 203 160 135 170 209 126 108 180 113 101
125 126 130 133 151 170 136 96 98 125 106 95 109 106 116 150 146 117 70 143 97 106 145 150 150 158 152 151 152 89 83 100 131 210 190 108 111 119 58 124 150 136 122 117
116 123 130 135 135 161 153 104 102 103 106 101 86 97 105 101 127 118 113 133 137 122 185 151 159 173 139 184 141 104 82 59 236 188 119 64 70 63 190 210 117 123 70 14
111 116 125 130 134 143 144 125 108 122 111 103 99 90 122 136 130 130 146 150 174 179 163 194 197 196 110 184 136 142 91 106 130 140 63 74 58 182 197 124 95 76 55 93
94 110 115 130 136 148 125 114 120 131 137 80 102 149 123 142 134 121 117 105 124 163 190 220 189 188 187 230 237 159 95 76 119 134 155 165 167 204 117 61 100 105 155 139
85 94 100 118 149 173 124 101 99 136 166 133 126 129 137 148 140 131 123 115 130 127 161 187 182 155 168 228 270 167 187 123 128 152 178 239 177 121 75 89 108 158 160 125
89 92 88 107 154 181 181 192 155 182 186 178 155 118 209 225 229 236 194 214 161 162 176 192 229 197 189 260 292 178 163 126 167 146 167 160 94 61 134 107 130 112 107 110
102 95 107 110 129 150 167 176 163 187 187 205 196 201 199 191 266 250 283 230 209 182 212 248 214 196 261 301 237 146 116 175 169 184 135 61 116 159 109 87 116 140 110 110
113 118 102 144 157 178 189 139 180 190 223 208 234 251 201 204 295 270 223 197 198 220 229 238 231 303 350 225 124 194 186 155 139 109 113 107 103 98 128 147 125 106 86 94
174 220 209 196 193 157 116 195 199 219 230 237 233 294 305 232 243 247 240 221 214 224 218 254 295 353 238 240 222 238 146 118 137 160 147 125 119 148 135 117 95 94 110 114
243 285 236 292 291 314 263 246 240 274 276 221 302 335 348 346 341 305 270 253 258 266 245 300 304 332 171 199 212 154 164 159 174 179 182 146 142 117 103 96 105 113 112 111
262 269 299 285 296 352 246 352 389 324 254 312 288 411 411 408 383 339 283 342 278 306 311 364 384 288 232 151 157 199 180 174 184 156 139 126 107 104 106 100 101 109 131 127
298 329 312 389 334 377 353 381 523 511 388 344 387 459 396 371 296 304 264 297 391 410 482 419 352 304 156 183 176 173 173 215 169 136 132 116 95 110 116 113 114 128 120 110
147 170 243 299 261 292 286 422 427 398 395 434 439 448 390 389 387 318 376 473 432 479 466 316 238 154 144 179 154 134 164 157 136 125 104 93 99 104 123 139 137 142 131 112
131 168 193 242 208 184 250 321 298 324 276 329 429 469 370 497 481 375 417 417 466 324 294 238 131 149 155 144 153 158 141 119 107 95 87 103 116 120 114 126 128 117 139 123
88 126 142 87 157 186 180 190 240 162 165 171 203 299 292 272 216 236 251 305 315 193 152 117 121 132 141 117 101 110 120 104 79 77 82 101 121 130 107 122 125 124 115 117
51 67 69 61 52 47 69 54 52 33 62 105 107 107 115 104 116 144 142 142 167 115 96 135 175 153 116 87 95 116 95 74 72 74 76 86 113 134 133 108 76 89 115 124

GFSNW_con_3kmhel_006.txt.gz
Helicity
86 104 114 133 130 113 75 74 155 31 73 101 60 16 76 68 10 41 85 96 45 42 31 48 39 30 52 37 58 -8 8 1 1 45 45 42 74 105 89 109 122 156 137 73
91 121 133 138 124 78 71 96 47 52 101 121 81 118 98 35 19 27 37 47 64 63 38 41 38 27 40 42 34 5 11 7 -9 96 73 92 71 155 143 195 126 104 145 72
86 126 139 144 104 38 37 68 95 108 70 173 46 56 62 82 93 63 64 45 25 31 18 35 19 17 14 30 34 25 24 25 36 51 63 96 105 110 102 131 224 122 69 18
77 115 156 139 95 67 71 83 66 78 97 139 118 33 39 57 54 28 26 37 29 30 48 24 9 25 1 7 21 38 40 51 48 38 51 78 89 83 85 93 88 135 70 43
72 97 144 166 136 92 86 162 102 89 79 42 72 103 70 45 44 28 34 50 40 46 38 18 4 12 8 30 35 48 55 62 56 46 79 97 63 66 67 55 67 70 56 10
80 83 115 161 166 102 89 66 78 92 119 85 92 82 48 41 138 78 45 66 110 195 187 181 177 157 134 95 65 77 76 71 79 77 81 56 103 108 135 166 112 120 119 40
92 95 99 142 159 130 125 99 82 90 103 85 55 40 62 107 56 70 113 118 177 175 120 145 157 164 136 104 122 101 97 103 101 105 96 127 158 81 69 100 85 57 35 74
94 105 109 133 168 154 79 78 120 80 90 63 80 62 79 169 121 137 222 239 138 61 79 90 97 108 113 116 141 111 93 92 125 127 135 93 31 165 166 179 58 47 160 223
100 106 119 128 154 166 78 77 105 76 81 121 59 73 143 128 183 216 145 182 135 117 127 120 114 113 112 103 132 138 124 113 117 162 158 134 143 241 196 62 112 225 188 143
114 113 119 124 139 154 106 74 98 88 107 103 119 128 111 124 111 114 121 121 141 131 135 145 123 131 147 134 133 120 170 149 141 140 144 98 76 134 105 198 246 148 133 113
126 125 125 128 142 139 125 73 85 104 104 93 189 159 94 128 84 151 103 163 142 152 147 126 124 143 128 171 149 146 155 148 143 142 147 102 172 226 216 208 153 171 165 110
126 127 130 135 150 176 139 85 83 105 105 93 161 166 192 183 224 151 121 116 98 107 127 131 132 151 170 199 190 106 167 148 172 173 148 87 161 188 125 156 127 250 130 151
128 132 136 149 159 180 154 121 122 102 97 87 91 110 121 136 215 182 138 135 74 88 156 109 127 154 143 178 183 197 197 103 220 222 170 122 160 133 320 233 191 268 232 167
136 135 140 153 169 192 170 135 118 136 110 103 101 65 97 104 126 125 160 118 198 205 163 167 162 162 93 168 159 215 183 164 167 178 134 136 258 351 340 248 223 146 144 98
132 137 137 149 174 195 166 109 114 131 135 80 88 110 78 103 107 103 133 148 138 194 189 189 168 177 185 261 288 258 172 147 182 172 176 275 351 298 239 198 164 115 170 150
94 117 129 142 172 183 133 102 88 135 173 121 102 103 79 113 130 120 120 121 128 145 156 167 189 171 190 265 317 179 102 127 206 191 288 310 208 175 188 192 266 196 150 113
81 92 118 140 171 185 208 184 137 168 180 147 125 92 171 194 154 184 157 189 177 166 170 183 188 208 229 289 326 198 132 102 128 346 265 165 163 143 190 221 127 93 105 143
94 99 104 119 139 132 160 142 131 148 182 189 163 150 166 169 264 275 299 302 272 223 236 251 206 191 246 323 217 138 103 86 356 289 175 143 180 162 196 110 138 170 138 168
113 113 95 115 144 135 142 119 139 153 182 180 230 244 182 186 327 301 259 269 221 217 253 241 236 308 361 279 166 168 128 362 288 203 120 198 223 235 189 178 152 158 152 153
133 165 161 172 149 149 135 150 164 189 197 235 241 272 282 248 258 267 235 243 231 249 256 253 311 340 266 241 277 272 356 305 215 171 204 271 272 182 184 178 170 151 162 120
245 234 225 212 218 185 183 216 212 238 260 226 279 336 356 332 328 305 271 262 267 265 247 279 294 298 181 108 213 343 297 173 140 224 295 270 196 182 174 162 165 139 121 113
219 244 266 224 286 287 232 284 331 287 290 354 356 416 483 463 403 384 333 362 304 275 286 329 343 211 302 239 307 174 155 208 275 234 181 183 164 152 156 128 110 109 137 115
189 239 295 258 260 267 312 385 483 462 491 457 473 535 448 432 436 394 319 266 308 386 425 430 359 389 248 242 174 152 272 297 193 146 168 155 133 138 113 91 100 121 128 122
93 118 184 262 213 307 347 290 372 403 306 302 379 429 344 420 375 308 317 394 442 470 519 481 363 311 251 161 156 167 173 157 138 146 118 111 101 84 89 103 112 132 130 126
116 117 147 177 164 148 122 180 191 226 250 303 366 430 376 401 414 443 487 436 451 437 428 385 226 188 165 201 186 182 132 116 106 122 108 80 79 93 100 110 122 124 145 136
82 101 96 82 114 142 169 197 215 193 221 223 267 397 458 531 505 469 458 468 507 289 185 73 103 145 130 100 114 127 127 140 127 88 77 82 92 102 104 115 130 136 130 104
87 86 71 57 59 58 54 55 90 56 108 248 203 336 342 192 219 256 172 174 113 42 50 137 115 92 99 115 116 121 116 96 83 79 86 95 101 120 129 107 98 110 110 133

GFSNW_con_3kmhel_009.txt.gz
Helicity
71 122 125 120 103 80 79 88 126 85 79 90 67 48 48 55 10 76 82 106 97 73 70 96 50 46 47 72 90 12 35 -3 -1 -2 -5 16 51 62 98 114 115 147 155 67
78 117 121 124 109 94 79 80 108 59 99 83 33 117 93 57 13 22 96 128 135 135 82 62 36 53 65 67 46 -8 19 -1 8 0 -1 -6 35 122 148 191 143 157 209 97
83 113 125 120 83 45 43 147 138 139 97 85 84 62 88 117 106 114 116 64 86 108 89 74 50 36 23 38 52 57 52 31 44 47 55 72 68 73 128 246 262 192 192 108
85 110 113 126 78 41 16 85 76 64 112 110 148 98 56 95 101 77 66 51 46 67 63 38 42 42 -3 26 45 70 65 52 49 34 35 54 60 53 62 103 141 278 133 141
83 103 108 121 96 56 61 162 96 97 98 112 140 89 79 78 24 60 6 45 44 92 135 92 9 8 -7 23 31 51 63 50 62 66 101 83 59 26 20 60 76 103 156 166
77 97 122 121 142 82 101 61 75 110 151 99 125 130 114 86 157 75 72 88 265 287 199 239 270 220 155 107 65 68 75 77 78 60 73 77 112 100 100 134 148 189 184 163
78 86 130 153 144 123 82 106 99 107 145 109 84 74 51 121 158 116 202 211 240 177 185 192 232 282 229 144 169 86 98 109 99 83 108 125 103 96 123 182 219 186 243 368
90 91 113 158 177 173 89 86 87 68 107 87 101 68 116 246 350 310 354 250 139 127 168 141 132 146 141 142 175 143 125 132 126 125 121 95 142 174 138 163 141 152 292 339
93 104 119 146 169 186 79 91 86 70 82 94 106 94 151 258 300 302 295 265 200 146 147 152 117 93 93 97 114 200 184 150 146 158 150 98 150 211 164 152 172 243 208 200
96 107 126 148 165 175 91 90 93 80 119 138 137 161 203 202 248 225 184 165 183 153 158 149 130 122 130 103 100 123 186 174 161 164 154 93 73 166 144 232 160 242 236 206
98 106 122 145 158 164 104 90 92 77 83 109 163 220 200 173 202 170 103 205 165 171 165 135 116 121 108 147 125 114 138 157 134 171 171 97 81 218 234 183 253 248 290 255
107 117 126 143 168 181 127 113 104 89 74 62 97 146 197 223 177 144 130 89 104 130 158 147 141 154 149 163 161 167 197 151 137 195 147 117 116 169 205 280 244 294 293 231
116 122 133 143 167 192 143 104 122 105 92 115 114 131 154 166 232 165 131 137 91 130 121 127 126 128 132 148 143 180 167 199 238 260 167 145 206 294 331 344 377 390 302 248
128 140 148 157 174 198 165 114 135 110 107 111 106 89 101 126 185 186 144 116 208 212 167 143 130 122 106 130 132 183 137 230 226 236 239 244 331 344 391 366 354 299 229 185
129 143 162 177 193 206 149 109 133 125 110 74 90 107 84 103 151 133 139 184 196 198 191 175 135 142 168 190 232 229 186 186 216 190 162 231 284 278 276 287 238 171 201 254
140 156 170 192 217 212 151 130 139 175 153 137 126 97 77 97 150 135 130 141 169 183 169 146 158 173 181 188 227 195 163 109 102 207 237 267 264 286 253 196 287 331 278 253
127 154 171 192 231 189 181 129 128 179 163 148 148 127 162 149 156 211 204 210 203 194 167 165 171 172 208 236 259 201 149 124 205 268 339 290 258 217 176 299 233 224 243 252
88 109 129 159 166 160 172 154 117 148 175 175 168 158 175 163 206 222 223 242 240 222 237 262 198 216 275 273 256 216 166 134 286 375 389 320 265 245 304 254 278 284 267 241
108 111 111 122 153 156 150 169 162 144 160 170 214 223 167 215 254 235 207 201 201 211 246 249 248 276 295 251 175 174 172 188 316 356 311 336 270 334 352 323 295 268 218 192
127 156 135 146 138 166 147 129 156 184 190 241 227 237 272 251 234 230 213 212 219 226 212 231 259 291 318 287 276 272 276 343 401 393 362 307 380 382 306 268 217 190 163 139
194 184 159 136 149 141 157 146 168 181 218 201 252 309 365 324 323 291 246 252 269 246 211 257 241 261 163 126 215 346 394 394 402 445 452 368 298 263 213 185 156 129 124 120
178 155 204 181 192 175 148 188 227 213 182 312 293 350 418 439 415 373 305 336 328 225 273 324 302 209 228 285 345 444 465 465 454 339 246 264 227 168 151 127 108 105 98 91
180 201 176 161 177 185 210 241 335 357 422 378 342 379 345 362 364 344 332 305 311 386 406 413 337 355 317 410 498 477 342 292 260 230 204 169 105 97 93 85 75 81 87 87
110 108 172 212 179 207 232 261 290 277 232 220 219 259 214 289 314 309 344 413 472 486 457 425 406 433 481 389 243 248 233 176 154 143 116 66 72 75 76 81 85 94 94 93
112 121 156 147 131 135 115 104 147 170 145 169 221 275 268 283 268 328 376 417 454 425 427 386 300 208 95 82 104 139 130 111 108 99 89 78 72 80 72 72 73 86 103 112
115 125 118 74 90 79 65 57 69 95 141 170 194 238 273 356 386 394 434 410 460 355 259 58 -3 21 54 71 75 77 82 81 87 90 80 71 79 78 78 88 93 103 127 121
91 121 86 62 69 57 52 42 65 53 108 142 162 237 279 252 295 317 243 278 146 37 3 -13 -20 12 73 104 115 107 101 94 75 84 86 85 86 99 109 91 94 123 130 141

GFSNW_con_3kmhel_012.txt.gz
Helicity
89 119 115 132 112 83 115 119 98 128 90 95 64 36 91 77 51 80 83 17 62 61 44 76 72 39 52 87 59 72 74 39 2 7 -8 -8 18 22 30 58 53 102 139 155
106 131 121 140 120 104 132 116 117 133 79 62 79 107 77 27 33 43 80 72 90 111 76 67 66 50 61 66 65 77 87 13 11 -18 16 5 32 47 77 96 83 98 161 124
112 149 121 133 113 99 125 142 153 166 106 92 49 89 88 55 84 92 95 104 130 134 106 85 51 61 71 68 61 74 77 48 11 18 16 33 54 84 102 135 146 148 187 142
121 147 120 119 109 85 132 167 151 89 107 100 92 89 59 64 77 87 69 72 64 74 80 81 66 72 72 77 82 82 70 50 62 71 64 60 59 77 118 128 120 186 105 192
126 135 130 125 97 76 93 175 143 151 115 91 126 94 52 46 83 78 74 53 94 110 88 47 48 70 58 52 76 98 101 73 91 64 88 87 54 32 39 60 91 117 171 263
120 132 142 137 103 72 31 163 97 96 177 140 165 144 67 54 98 78 78 108 199 208 94 111 136 98 85 47 72 90 100 101 102 63 98 88 83 81 97 142 142 149 177 222
123 135 146 149 155 90 63 121 95 137 217 147 134 136 127 107 112 103 87 128 172 123 91 163 241 294 227 178 164 96 106 134 123 91 128 106 98 88 94 156 189 216 277 307
116 149 161 155 178 109 59 46 60 98 160 127 155 115 98 232 294 266 185 134 95 113 162 143 150 142 129 127 162 162 127 134 137 115 104 103 128 163 148 162 137 173 235 262
112 145 174 186 196 164 106 101 70 62 96 132 141 116 129 231 241 291 291 302 232 191 164 158 122 95 99 83 107 181 192 191 161 141 124 87 103 137 167 182 140 139 180 207
116 138 160 188 202 187 106 119 100 85 99 121 136 131 153 183 235 203 226 211 174 147 149 159 136 127 130 118 113 113 183 183 156 196 157 123 82 208 182 220 88 140 172 193
115 139 158 169 184 176 104 114 107 70 92 138 160 174 180 204 180 173 156 209 139 154 156 137 121 129 131 171 147 111 131 158 154 212 206 125 122 241 240 150 176 184 222 232
110 124 151 177 186 174 96 118 119 89 88 87 127 170 179 129 103 152 149 100 85 100 142 132 130 152 151 174 167 182 173 164 133 153 115 143 103 163 193 230 241 244 299 260
111 125 146 180 205 206 104 103 117 98 99 123 123 168 203 171 150 90 131 126 99 111 116 109 120 133 147 148 122 158 129 209 185 219 144 131 133 233 262 284 291 307 302 294
112 126 146 178 208 235 121 108 119 98 97 117 116 122 157 173 180 141 121 132 204 178 153 144 133 135 100 125 136 145 98 190 168 213 213 274 286 254 299 373 373 330 298 260
120 134 151 173 193 207 134 125 148 112 90 68 109 114 136 144 142 142 138 190 192 173 180 176 134 126 154 163 199 190 173 180 220 206 137 193 189 233 284 310 239 249 303 371
123 143 161 181 201 140 118 124 130 159 116 119 124 97 116 160 165 146 132 156 165 183 154 141 145 161 171 172 186 120 117 142 143 153 121 168 200 206 229 264 282 296 336 315
137 147 168 192 198 137 136 116 113 175 146 134 139 127 145 148 166 170 183 194 172 177 191 191 175 181 205 211 216 200 173 138 130 183 343 351 329 273 290 348 386 430 396 324
142 156 180 203 166 160 189 213 205 183 170 172 167 148 155 168 185 183 190 188 197 191 195 234 199 216 251 219 205 176 166 144 194 249 293 231 292 385 406 437 506 385 261 229
124 151 174 182 188 173 164 213 209 163 167 178 201 198 152 186 197 190 178 163 158 205 235 252 254 268 266 242 172 163 148 175 184 319 379 374 391 497 587 581 252 218 183 163
99 145 177 192 154 162 172 159 166 194 209 227 205 223 222 208 197 206 188 173 172 198 178 209 255 315 292 245 201 189 173 158 279 405 473 636 732 717 508 196 154 131 127 132
171 173 187 146 171 142 158 163 167 171 194 182 228 232 234 219 229 218 203 212 227 192 172 230 246 287 176 220 184 255 300 348 401 549 663 696 551 295 145 86 99 106 115 118
181 152 169 178 185 182 165 162 205 199 189 279 251 230 256 296 302 279 224 276 291 227 274 324 300 248 252 280 371 462 518 643 725 695 664 358 138 96 66 103 110 103 93 99
169 184 156 132 164 151 151 189 218 239 312 273 244 226 195 200 211 230 249 278 302 347 337 340 322 358 354 423 523 566 473 383 279 168 101 91 76 87 103 78 53 64 73 71
144 163 182 194 180 204 235 220 216 216 198 176 158 186 137 217 159 157 211 272 342 383 431 408 410 400 331 290 276 215 130 94 13 37 84 117 102 60 30 31 71 90 78 75
101 119 207 203 163 159 122 115 137 154 144 156 175 182 183 203 239 228 250 305 364 357 419 402 262 213 199 157 87 51 52 74 91 79 80 52 33 45 65 72 69 77 90 99
125 123 125 104 125 116 94 88 91 77 99 109 124 160 179 226 296 280 303 336 433 422 345 173 113 69 44 58 66 90 74 73 66 60 51 57 65 66 64 80 93 101 106 100
128 162 158 117 120 96 91 79 89 66 84 105 128 144 152 157 193 226 244 255 173 83 62 13 -18 -20 14 55 55 42 33 42 54 61 71 68 69 88 98 93 101 113 121 147

GFSNW_con_3kmhel_015.txt.gz
Helicity
80 101 125 105 92 114 153 161 120 169 122 96 38 56 127 130 96 92 59 34 33 27 50 72 57 39 45 81 67 53 59 44 80 49 62 44 23 17 27 44 29 57 88 66
92 112 119 111 95 108 178 174 137 176 117 55 66 105 124 91 78 63 54 43 37 80 87 61 69 62 58 72 57 53 77 72 81 83 75 54 31 39 59 62 66 63 107 66
99 122 125 118 98 139 167 163 144 199 142 81 36 76 80 81 89 48 64 76 90 111 101 94 47 73 54 65 69 77 83 65 32 3 19 47 46 67 79 86 80 87 123 136
100 131 135 116 105 126 175 174 142 141 119 108 89 114 93 65 62 61 73 103 68 52 70 81 61 54 63 83 89 88 85 48 75 84 90 73 65 76 92 102 122 145 85 141
121 132 129 122 119 132 169 153 137 177 101 136 125 126 83 59 69 62 58 56 75 56 25 21 21 54 57 55 101 107 119 65 103 86 108 97 60 66 69 77 104 127 103 111
129 122 133 124 108 153 147 165 159 138 160 176 156 130 97 42 90 125 78 61 94 95 58 58 76 75 79 55 57 84 93 94 110 81 106 103 61 70 154 113 133 161 190 143
117 132 144 140 89 124 79 117 120 160 157 164 145 161 118 102 86 90 84 98 112 63 75 127 194 258 208 181 160 96 102 139 148 107 131 127 84 110 94 132 135 144 163 188
125 141 169 169 80 82 54 124 99 129 174 150 157 187 179 209 224 170 132 97 75 111 161 121 115 120 111 126 147 149 122 148 170 162 154 152 127 138 201 200 110 151 176 204
129 151 187 187 114 90 81 98 96 95 180 200 171 186 160 172 209 211 152 159 267 176 152 136 108 73 62 65 80 143 193 206 200 203 184 122 103 135 184 205 154 140 213 205
130 156 208 222 189 122 60 74 76 94 131 162 134 156 127 140 202 195 197 193 155 170 162 166 140 122 109 107 95 86 153 180 160 190 170 163 83 190 255 258 97 141 113 172
127 159 209 263 226 160 107 94 101 71 107 157 140 127 144 149 159 169 132 207 153 177 173 150 118 133 102 148 139 106 118 133 146 229 225 168 177 330 203 111 167 101 132 170
120 163 196 241 245 169 106 136 140 122 111 108 146 148 144 114 88 149 152 99 89 106 166 152 147 163 151 174 165 185 182 163 142 149 123 127 73 105 123 182 192 177 209 221
140 162 190 207 216 172 98 127 134 123 130 155 155 181 190 162 120 101 137 152 112 115 113 113 133 161 172 171 141 183 144 165 182 211 128 115 104 78 162 173 206 245 276 320
139 161 188 205 202 157 115 126 132 104 109 115 125 159 160 182 148 115 112 117 186 167 155 153 148 161 119 150 160 165 117 161 131 160 122 142 138 147 190 252 276 328 365 361
133 150 175 201 187 156 128 125 150 105 90 72 130 144 168 187 147 145 151 181 167 159 171 164 129 138 172 196 214 185 192 179 221 186 144 164 132 139 195 283 338 382 387 394
138 149 170 181 144 125 128 125 126 159 114 102 113 105 154 188 165 176 192 165 159 165 142 129 130 157 180 168 177 101 154 153 157 146 116 163 156 146 267 301 292 344 378 389
137 159 178 156 119 104 115 78 93 173 121 108 125 123 149 140 155 160 168 175 154 159 156 156 157 172 206 212 193 182 175 164 145 162 234 196 206 176 246 336 393 457 512 534
143 169 180 157 141 102 142 160 173 166 137 148 139 142 145 175 176 172 173 172 179 198 185 197 178 223 236 184 177 167 132 111 107 132 183 180 204 299 431 489 563 639 696 521
162 187 170 166 159 145 138 211 173 164 149 149 165 155 116 152 169 169 161 163 169 178 203 205 205 226 243 192 152 137 123 137 116 138 208 245 316 421 515 638 700 685 332 83
196 195 192 174 170 174 191 170 167 198 213 217 190 185 185 152 143 160 157 157 148 163 145 182 214 259 225 174 162 122 128 128 163 211 271 397 548 604 690 796 667 282 94 83
185 198 192 154 201 160 182 184 192 200 216 223 242 216 196 201 172 153 163 166 159 140 133 174 192 223 213 233 196 211 222 232 302 346 477 538 612 748 669 426 149 117 73 71
137 109 145 158 159 151 152 192 200 203 156 194 156 151 184 189 174 171 148 165 182 143 194 244 234 260 262 276 290 317 349 419 453 484 527 503 504 453 325 131 55 5 53 96
162 159 167 150 156 151 155 185 220 243 238 241 189 160 144 146 164 184 183 177 192 233 249 257 297 270 260 247 263 354 350 373 412 436 436 397 253 82 44 27 14 53 98 110
180 190 226 209 192 217 280 270 223 206 164 123 124 137 109 129 109 135 169 198 234 254 303 322 294 276 239 287 319 282 252 174 78 10 3 15 3 8 34 61 79 96 59 38
136 146 150 156 150 172 137 138 158 169 151 142 141 141 132 170 156 190 214 240 273 300 371 360 270 302 245 219 167 130 64 34 29 37 53 51 45 28 17 18 27 26 43 60
100 118 132 106 138 143 128 128 138 97 103 113 128 158 160 171 211 256 288 375 400 306 285 249 220 170 102 61 70 47 36 69 48 37 36 23 21 25 43 66 67 68 72 81
137 136 144 123 137 114 105 109 108 95 105 135 140 180 145 144 166 192 210 217 206 154 127 82 76 74 44 9 6 27 30 33 34 49 63 62 62 67 68 72 75 93 102 106